This is the latest recevied weather packets stored in our database for station/object KP4OZ. If no packets are shown the sender has not sent any weather packets the latest 10 day(s).
| Time | Temp. | Humidity | Pressure | Rain* | Wind** | Luminosity | Snow |
|---|---|---|---|---|---|---|---|
| 1777996957 | 33.89° C | 53% | 1017.5 hPa | 0 mm | - | - | - |
| 1777996652 | 33.33° C | 53% | 1017.3 hPa | 0 mm | - | - | - |
| 1777996349 | 33.33° C | 54% | 1017.4 hPa | 0 mm | - | - | - |
| 1777996045 | 33.33° C | 54% | 1017.4 hPa | 0 mm | - | - | - |
| 1777995741 | 33.33° C | 53% | 1017.4 hPa | 0 mm | - | - | - |
| 1777995438 | 33.33° C | 53% | 1017.3 hPa | 0 mm | - | - | - |
| 1777995135 | 32.78° C | 53% | 1017.6 hPa | 0 mm | - | - | - |
| 1777994832 | 33.33° C | 55% | 1017.3 hPa | 0 mm | - | - | - |
| 1777994528 | 32.78° C | 56% | 1017.5 hPa | 0 mm | - | - | - |
| 1777994223 | 32.78° C | 56% | 1017.5 hPa | 0 mm | - | - | - |
| 1777993921 | 32.22° C | 57% | 1017.4 hPa | 0 mm | - | - | - |
| 1777993617 | 32.78° C | 56% | 1017.3 hPa | 0 mm | - | - | - |
| 1777993315 | 32.78° C | 56% | 1017.4 hPa | 0 mm | - | - | - |
| 1777993015 | 32.78° C | 56% | 1017.4 hPa | 0 mm | - | - | - |
| 1777992714 | 32.78° C | 55% | 1017.6 hPa | 0 mm | - | - | - |
| 1777992411 | 32.22° C | 56% | 1017.6 hPa | 0 mm | - | - | - |
| 1777992109 | 32.78° C | 56% | 1017.6 hPa | 0 mm | - | - | - |
| 1777991806 | 31.67° C | 57% | 1017.7 hPa | 0 mm | - | - | - |
| 1777991503 | 31.67° C | 57% | 1017.8 hPa | 0 mm | - | - | - |
| 1777991200 | 32.22° C | 56% | 1017.8 hPa | 0 mm | - | - | - |
| 1777990897 | 32.22° C | 56% | 1017.7 hPa | 0 mm | - | - | - |
| 1777990595 | 32.22° C | 58% | 1017.7 hPa | 0 mm | - | - | - |
| 1777989988 | 32.78° C | 58% | 1017.9 hPa | 0 mm | - | - | - |
| 1777989685 | 32.22° C | 59% | 1017.7 hPa | 0 mm | - | - | - |
| 1777989386 | 31.67° C | 60% | 1017.7 hPa | 0 mm | - | - | - |
* Rain latest hour (hover to see other rain measurements)
** Current wind speed in m/s (hover to see current wind gust speed)